Regional Weather Roundup
Issued by NWS

Home | Current Version | Previous Version | Graphics & Text | Print | Product List | Glossary On
Versions: 1 2 3 4 5 6 7 8 9 10 11 12 13 14 15 16 17 18 19 20 21 22 23 24 25 26 27 28 29 30 31 32 33 34 35 36 37 38 39 40 41 42 43 44 45 46 47 48 49 50
000
ASUS43 KLMK 110110
RWRKY
KENTUCKY REGIONAL WEATHER ROUNDUP
NATIONAL WEATHER SERVICE LOUISVILLE KY
800 PM EST WED FEB 10 2016

NOTE "FAIR" INDICATES FEW OR NO CLOUDS BELOW 12,000 FEET
WITH NO SIGNIFICANT WEATHER AND/OR OBSTRUCTIONS TO VISIBILITY.

KYZ001>023-026-027-061>063-070>075-110200-
WESTERN AND SOUTH CENTRAL KENTUCKY

CITY           SKY/WX    TMP DP  RH WIND       PRES   REMARKS
PADUCAH        CLOUDY    24  19  81 CALM      30.19R
HENDERSON      CLOUDY    21  18  86 W10       30.19S WCI  10
OWENSBORO      LGT SNOW  23  19  85 W13       30.19R FOG     WCI  11
HOPKINSVILLE   LGT SNOW  23  19  86 W6        30.19R WCI  16
BOWLING GREEN  FLURRIES  25  15  66 W8        30.19R WCI  16
GLASGOW        CLOUDY    24  14  65 W10       30.16R WCI  14
$$

KYZ024-025-028>034-038-045-046-053-110200-
NORTH CENTRAL KENTUCKY

CITY           SKY/WX    TMP DP  RH WIND       PRES   REMARKS
LOUISVILLE/SDF MOCLDY    22   9  57 W9        30.15R WCI  12
LOUISVILLE/LOU CLOUDY    22   8  55 W9        30.15R WCI  12
FORT KNOX      CLOUDY    20  10  63 W6        30.12R WCI  13
$$

KYZ035>037-039>044-047>052-055>060-089>105-110200-
NORTHEAST KENTUCKY

CITY           SKY/WX    TMP DP  RH WIND       PRES   REMARKS
LEXINGTON      PTCLDY    17   7  64 W5        30.10R WCI  10
COVINGTON      MOCLDY    17   6  62 NW10      30.09R WCI   5
FRANKFORT      PTCLDY    19   4  51 MISG      30.11R
$$

KYZ054-064>069-076>088-106>120-110200-
SOUTHEAST KENTUCKY

CITY           SKY/WX    TMP DP  RH WIND       PRES   REMARKS
JACKSON        CLOUDY    17   6  62 VRB5      30.07R WCI  10
LONDON         MOCLDY    19   8  62 W3        30.10R
SOMERSET       PTCLDY    21   9  58 W5        30.14S WCI  15
MIDDLESBORO    CLOUDY    22   8  55 NW3       30.11R
MONTICELLO     CLOUDY    23  11  60 W14G24    30.14R WCI  11
$$




USA.gov is the U.S. government's official web portal to all federal, state and local government web resources and services.